Theta_e
322 329 332 335 333 334 344 342 342 342 343 339 344 348 352 351 349 351 345 349 349 349 335 326 325 336 340 334 331 326 324 325 327 328 328 327 328 327 326 326 327 326 325 325 324 324 324 324 326
331 331 332 333 332 337 340 339 341 340 341 339 342 350 352 353 353 351 350 350 348 342 334 327 327 337 340 337 332 332 328 325 325 326 327 327 327 327 326 326 326 327 326 326 326 326 325 325 325
328 331 330 324 328 338 339 339 339 339 341 345 347 348 349 352 351 351 351 351 345 337 335 331 326 338 340 339 332 335 334 331 328 325 325 326 326 326 326 326 326 326 326 327 327 327 328 328 327
327 330 329 326 332 334 338 336 338 337 342 342 342 339 348 351 350 349 351 348 346 340 340 335 329 331 340 340 336 333 337 337 335 330 327 325 325 325 326 326 326 325 326 326 327 327 328 328 328
326 328 321 324 326 337 336 337 338 337 342 341 337 336 340 348 349 348 347 348 345 345 349 338 333 328 337 341 340 335 335 338 338 335 331 327 326 326 326 326 326 326 325 325 326 327 328 328 328
325 323 320 320 323 336 336 338 337 341 340 337 336 336 334 342 346 348 348 339 346 347 344 337 332 328 333 337 340 340 336 337 339 338 334 331 328 327 327 327 327 327 326 325 325 326 327 328 329
322 317 320 320 324 333 335 337 336 343 341 337 333 335 331 342 346 346 345 346 347 348 340 330 331 332 327 327 332 336 338 338 338 337 335 333 330 328 328 328 327 326 326 326 326 327 328 329 330
323 317 318 317 327 334 334 336 337 341 340 333 335 332 334 342 346 344 344 341 336 340 341 336 333 330 334 330 325 324 325 326 327 329 329 329 328 329 328 326 330 330 331 336 334 332 330 330 331
323 316 315 318 325 324 332 329 332 337 338 336 336 335 337 345 346 343 338 332 340 342 338 334 333 330 335 336 333 328 325 325 325 326 326 326 326 326 327 340 344 346 345 344 345 345 337 339 335
320 316 319 321 321 322 323 327 335 338 338 336 338 340 342 343 344 340 334 332 332 338 340 334 331 334 333 337 334 338 337 333 330 329 326 327 328 336 340 342 344 346 347 345 345 342 342 336 338
320 317 320 320 324 323 322 323 325 330 328 339 339 335 334 334 338 339 335 333 331 335 340 334 329 335 336 330 330 337 336 337 336 337 333 334 337 335 339 339 340 344 343 342 339 342 340 337 336
321 321 321 322 324 324 322 324 323 325 329 332 333 335 339 338 339 342 337 332 333 337 330 333 340 337 339 333 332 334 339 340 342 337 335 333 334 335 336 339 340 343 343 339 335 336 334 330 331
320 321 322 323 325 324 324 323 322 324 332 332 331 331 335 344 345 342 343 338 337 335 340 334 333 333 337 338 337 337 333 338 337 340 338 332 332 337 339 340 344 340 337 334 330 331 331 331 329
322 322 321 322 323 324 322 322 324 324 331 331 331 331 334 339 342 345 345 344 343 343 341 341 340 339 337 338 341 341 340 338 338 339 341 342 337 339 337 332 332 330 328 328 328 328 330 329 327
322 321 318 320 322 320 325 322 321 328 329 331 331 331 331 331 333 343 343 342 341 340 339 338 336 335 336 337 336 336 337 336 333 331 331 331 330 327 326 326 326 326 327 327 327 327 330 330 330
321 318 318 318 320 321 322 323 323 328 330 331 331 331 331 330 328 326 326 330 330 327 326 331 334 335 335 334 333 332 331 329 328 327 327 327 325 320 318 318 324 323 322 318 321 324 323 315 314
317 318 320 322 319 320 320 323 324 327 330 331 330 330 330 330 329 326 324 322 322 320 319 318 318 320 324 329 328 330 328 327 327 327 326 326 325 324 324 320 323 322 319 320 321 320 318 319 317
321 320 320 323 323 320 322 323 323 327 329 329 330 330 330 330 330 326 323 322 321 321 320 319 319 317 317 323 324 323 326 326 326 325 326 325 326 325 325 324 326 325 324 323 323 319 318 317 319
320 321 322 323 321 322 323 323 323 325 328 328 329 330 330 329 327 325 324 322 322 321 321 320 320 319 318 317 316 317 323 327 327 326 326 326 326 327 327 327 326 326 325 322 319 320 318 318 322
319 318 319 320 320 320 322 324 323 322 324 327 328 329 329 328 326 324 323 322 322 321 320 320 320 319 318 318 317 317 317 316 314 312 314 317 323 326 326 327 326 326 324 321 319 318 319 321 323
319 319 319 319 318 318 318 317 323 324 325 326 328 327 325 324 324 323 322 322 321 321 320 321 320 319 318 317 317 316 316 316 315 314 311 311 313 317 319 322 322 322 323 321 319 318 318 318 318
323 321 320 319 316 316 317 315 314 322 322 323 325 325 324 323 323 322 321 322 321 320 321 321 319 316 317 317 316 315 314 314 314 313 312 311 312 311 311 310 315 317 317 319 316 316 315 316 318
322 321 320 320 317 317 316 315 315 321 322 321 320 322 323 323 321 320 320 320 317 316 316 316 316 317 318 317 317 316 314 314 313 313 312 312 313 312 312 310 317 319 318 321 321 322 322 320 317
320 318 315 315 314 316 317 317 321 321 321 319 322 323 322 321 320 319 319 318 317 317 316 315 315 314 313 312 312 313 315 315 314 314 313 313 312 312 312 311 311 316 317 317 318 320 320 321 322
316 313 314 315 319 318 316 323 322 321 319 319 320 321 320 320 319 319 318 315 314 315 315 313 312 312 311 311 312 313 313 313 316 316 315 314 314 314 314 313 311 311 311 313 314 316 316 316 318
318 314 314 320 319 316 318 325 322 320 321 320 320 320 320 319 317 315 315 315 315 314 313 312 312 311 311 312 312 311 310 310 311 311 312 313 314 313 313 313 314 312 311 310 310 314 312 313 314
318 318 315 316 319 317 319 323 320 320 320 319 318 319 317 315 314 314 314 312 311 311 310 310 310 311 311 310 310 309 308 307 308 309 309 309 309 310 313 313 313 312 311 311 311 310 309 309 311
315 316 314 315 323 321 317 321 322 320 319 316 315 315 314 314 313 313 312 311 311 311 311 311 311 311 310 309 308 307 307 307 307 307 308 309 310 309 309 309 308 308 308 307 307 308 308 308 308
318 319 313 313 315 316 319 318 316 318 317 314 315 314 313 313 313 312 312 311 312 311 311 311 311 310 308 308 308 307 307 307 307 307 307 307 307 307 308 308 308 307 307 308 307 307 307 307 308
316 315 314 316 317 318 318 318 317 313 316 315 314 314 314 314 314 313 312 312 312 312 311 311 310 308 308 307 308 308 307 305 305 305 305 305 306 306 307 307 307 307 307 306 306 307 307 307 308
Wind_Speed
16 12 5 3 4 6 0 2 1 4 5 10 24 16 12 7 2 3 11 12 8 9 8 8 11 13 15 15 14 13 12 12 11 10 11 11 10 10 10 10 9 9 10 11 11 12 12 12 11
14 13 5 2 4 3 3 2 3 5 19 21 13 8 5 5 11 11 13 11 4 10 10 8 9 12 15 14 14 12 11 10 9 8 7 7 7 6 7 8 7 6 6 7 8 8 9 10 10
13 9 4 4 3 1 3 4 6 9 28 17 10 5 3 8 9 8 8 9 8 10 8 5 6 11 14 13 12 11 9 8 7 6 6 5 5 4 4 4 4 4 4 4 5 6 7 8 8
12 5 3 4 2 4 7 7 9 14 8 12 5 3 5 8 6 15 13 8 10 11 9 7 5 4 10 11 10 10 9 7 5 5 5 4 4 3 2 1 1 2 3 3 4 5 6 6 7
13 3 3 3 2 3 4 17 18 4 8 10 7 4 8 13 15 11 9 8 8 8 5 5 6 4 4 6 8 9 9 8 6 4 4 5 4 3 3 2 2 3 4 5 5 6 6 6 6
4 3 4 5 3 5 3 15 16 6 18 7 4 7 7 12 16 14 14 13 11 12 8 5 5 5 4 4 6 8 9 9 7 6 7 7 7 6 6 5 5 6 6 6 6 6 7 7 7
3 4 4 3 5 1 3 17 17 10 12 6 9 3 8 16 12 14 16 15 9 11 10 8 6 4 3 1 4 7 9 10 11 10 9 9 8 8 8 8 8 8 8 8 8 7 7 6 6
5 4 7 4 4 3 9 10 22 27 11 14 2 2 11 27 16 15 20 18 14 6 14 21 15 10 4 2 5 5 7 8 10 10 10 9 8 8 8 9 8 8 8 8 9 10 9 9 9
7 4 4 5 9 3 8 4 21 20 20 7 5 15 24 23 14 17 21 9 6 8 7 6 4 6 4 3 4 5 7 7 9 9 9 8 7 7 7 4 3 4 6 8 10 10 9 12 11
4 3 4 4 0 12 16 26 18 13 13 9 14 22 15 15 10 5 6 10 5 3 9 12 3 5 7 3 7 5 5 7 8 8 8 8 8 6 5 6 8 7 6 7 8 9 10 12 9
4 6 6 4 30 30 23 25 22 21 5 11 17 33 27 21 17 11 14 9 2 1 2 7 7 6 5 6 9 6 5 5 6 7 8 8 8 10 10 10 9 8 7 7 5 5 5 6 8
2 7 9 15 24 23 14 23 22 31 26 33 41 37 33 26 23 19 15 7 6 5 9 9 6 2 1 2 9 8 8 10 11 10 10 13 14 15 11 12 13 12 12 10 8 6 4 4 6
5 7 12 22 26 24 25 19 15 33 39 36 34 32 33 35 30 21 14 11 10 11 9 8 6 1 3 5 8 13 16 16 19 18 15 17 17 15 14 15 16 14 13 13 11 10 6 5 10
3 9 8 10 21 21 21 10 11 24 40 37 38 38 36 34 30 26 23 20 14 7 8 10 2 4 8 10 8 12 14 17 16 16 18 15 15 17 16 17 17 15 14 13 13 12 8 9 10
3 3 4 4 13 8 22 5 5 28 28 36 37 35 33 31 28 29 25 21 14 12 8 8 8 6 3 5 8 9 9 11 11 10 13 15 18 19 18 18 15 14 13 13 11 8 7 9 11
6 4 4 4 5 5 9 3 4 27 30 30 31 30 28 23 21 17 16 14 9 7 5 6 7 9 6 5 7 6 3 3 4 10 15 16 15 15 13 15 14 12 12 12 10 11 10 8 9
7 5 4 3 8 6 6 5 6 27 32 25 29 26 24 23 17 14 11 10 10 11 12 13 11 8 7 5 5 6 4 6 5 7 8 12 13 15 15 14 11 8 8 7 3 2 4 5 5
3 5 6 4 3 4 5 3 5 22 29 26 28 28 24 19 16 10 9 9 9 9 9 9 10 10 8 6 7 8 8 9 11 10 8 9 8 9 7 10 11 9 6 3 3 9 13 14 14
8 6 3 3 6 4 4 7 8 16 28 25 26 29 26 19 12 8 6 4 3 5 7 7 5 4 6 3 4 5 9 16 21 17 15 14 10 11 11 10 10 9 7 5 13 16 17 16 16
9 8 6 4 10 6 6 6 7 3 12 27 30 28 25 22 14 9 2 1 2 6 8 7 2 2 0 1 4 10 10 12 14 19 23 26 28 21 15 13 14 15 11 14 15 16 17 16 15
4 6 3 3 5 5 3 6 5 3 17 20 25 23 19 17 15 7 2 5 3 7 9 3 1 2 5 6 10 14 19 16 18 25 29 28 25 22 25 27 23 25 25 29 21 18 16 20 23
3 3 3 5 4 2 3 4 5 5 7 13 24 23 19 15 7 4 2 5 1 5 5 4 3 12 11 10 11 12 13 15 20 25 26 23 23 22 21 22 23 24 25 25 17 21 23 20 24
5 3 3 3 3 2 4 3 7 6 4 1 3 12 11 10 5 5 7 7 5 10 9 5 4 5 8 12 13 15 17 16 15 19 22 25 27 27 25 25 16 12 13 15 14 15 20 20 21
2 5 6 5 3 3 4 4 6 3 2 4 12 12 9 6 4 6 7 10 13 16 13 9 10 10 14 18 16 16 19 20 23 23 24 26 28 28 27 23 20 22 20 15 14 13 16 20 22
12 7 5 6 5 4 5 6 4 5 5 10 10 7 7 4 5 9 13 17 15 18 9 9 12 18 21 22 20 21 21 22 22 23 27 30 27 26 27 27 24 22 26 28 32 27 22 20 20
2 6 5 1 1 5 6 3 4 5 7 9 10 11 9 7 9 12 15 11 8 6 10 12 16 17 17 15 17 21 26 29 29 30 28 27 27 29 29 29 31 30 27 28 29 31 28 27 27
4 3 4 4 2 2 2 2 5 2 3 5 11 13 9 10 11 9 7 8 10 12 12 15 17 18 22 28 31 36 41 38 36 35 34 34 33 29 26 28 29 29 27 28 30 33 37 39 39
5 3 3 3 0 3 3 1 4 5 5 6 9 10 9 9 9 10 11 13 14 13 13 18 23 25 30 38 40 39 33 29 29 29 28 27 25 23 26 29 31 33 32 30 30 34 37 40 45
2 2 5 4 5 5 1 5 6 4 5 7 6 6 10 11 10 10 16 10 10 15 19 24 30 36 40 40 37 33 31 34 34 32 31 31 33 31 29 28 28 28 26 24 25 25 22 22 22
4 5 5 5 4 1 4 6 5 9 10 11 6 10 9 7 9 12 9 4 13 19 25 30 34 37 35 35 39 37 33 29 25 23 25 29 29 25 26 27 26 25 24 24 24 23 22 20 20
Wind_Direction
357 350 339 55 50 57 341 278 167 87 92 55 348 305 84 122 138 181 148 176 170 168 156 149 163 168 171 165 155 148 146 144 141 129 121 116 111 106 102 97 89 84 80 78 76 75 79 81 77
12 348 30 74 81 31 286 277 353 169 139 142 162 222 114 71 104 132 142 173 138 162 147 144 150 162 171 169 164 156 154 150 148 143 128 117 115 113 104 98 91 81 76 70 65 67 70 74 78
352 344 350 92 93 221 195 183 183 131 159 163 168 201 81 132 118 127 157 141 129 129 104 99 129 156 168 171 171 165 159 158 153 157 146 142 137 129 115 98 86 69 57 51 47 46 45 51 60
348 335 22 74 266 302 170 184 180 127 131 206 172 75 64 116 99 127 141 115 100 108 92 101 88 139 173 177 177 178 174 175 174 180 173 177 173 171 169 114 42 30 6 8 13 16 20 23 24
348 337 31 352 267 206 234 181 163 129 159 155 181 191 104 90 102 105 118 80 50 84 85 96 97 104 164 189 191 194 198 196 202 211 216 215 218 225 239 261 298 318 329 334 345 349 350 354 2
1 50 12 304 232 206 296 176 154 140 158 141 123 141 91 85 124 138 135 95 76 71 85 90 103 121 142 181 207 213 214 219 226 228 232 233 232 235 246 264 279 292 303 315 327 337 337 337 339
131 88 251 273 314 360 173 158 148 138 157 198 146 103 93 109 113 126 113 89 72 51 51 69 58 47 28 230 219 231 237 238 236 236 237 240 245 251 261 279 295 307 314 315 315 314 305 297 299
354 86 329 299 290 86 185 161 160 156 182 160 128 145 124 122 137 134 106 83 34 19 69 63 40 33 33 3 296 252 246 246 248 251 252 253 256 270 284 296 311 318 321 327 313 303 300 303 306
285 39 295 273 83 352 126 118 158 167 148 202 134 84 109 123 139 128 118 82 180 172 133 79 114 234 151 273 272 295 286 269 261 255 254 256 258 265 280 275 303 309 331 317 308 319 317 321 311
90 92 270 212 281 126 99 99 126 117 129 115 107 82 103 127 126 148 154 155 187 137 158 168 293 229 187 186 264 246 263 272 263 257 254 247 241 240 226 253 281 295 316 296 305 320 321 328 300
206 173 237 86 117 100 94 79 109 116 67 72 101 96 93 103 106 118 122 122 192 60 146 196 209 175 207 243 259 265 239 253 256 253 235 230 225 240 250 258 271 267 254 267 274 289 325 335 332
161 228 187 97 127 112 105 102 81 79 93 105 107 98 96 97 106 120 135 118 110 102 111 152 168 222 208 226 220 270 255 268 261 262 254 250 247 258 256 264 269 270 271 267 266 224 236 301 314
106 166 114 109 123 122 122 112 116 103 109 109 107 100 96 97 95 102 96 115 122 96 91 145 111 161 299 278 266 272 275 267 254 254 252 255 259 262 260 262 256 261 263 265 260 257 245 251 285
87 88 134 145 132 136 120 138 111 116 114 103 98 101 101 103 101 99 93 96 100 80 54 71 96 308 251 263 265 270 246 253 271 264 257 260 271 267 259 262 263 256 257 260 266 270 259 272 290
349 39 29 190 155 142 124 25 131 128 118 108 106 104 101 100 100 101 99 99 90 74 51 45 50 55 25 289 283 281 262 271 275 286 286 285 284 280 267 261 250 248 252 258 257 244 255 269 275
10 59 5 289 178 137 132 205 233 135 126 117 115 111 105 100 88 85 97 104 101 94 55 7 318 299 297 246 247 253 262 357 303 297 302 301 296 287 273 262 258 263 258 246 233 240 256 266 269
9 290 210 282 207 135 91 182 209 139 127 129 122 119 116 112 99 87 68 59 64 47 44 44 37 3 324 288 273 265 263 274 282 282 315 305 299 300 291 275 254 249 241 234 242 275 301 315 299
282 11 342 5 278 168 62 162 153 144 136 138 132 127 123 115 109 81 63 37 24 37 37 50 45 37 20 349 324 291 284 297 295 287 281 259 252 246 256 274 259 249 240 248 346 340 332 329 324
90 82 81 262 343 77 186 162 191 171 140 144 139 135 130 123 119 97 81 45 47 30 17 12 9 36 24 26 8 353 313 304 293 283 276 251 237 220 235 231 236 242 247 245 325 321 329 330 324
67 51 357 306 351 48 152 226 221 115 157 151 144 139 136 138 145 137 117 291 295 352 342 335 353 63 97 249 326 316 305 297 311 322 312 299 278 266 267 260 235 222 255 282 323 329 328 319 318
49 85 353 267 329 347 55 339 180 54 143 150 143 141 148 149 152 140 247 278 271 339 330 301 271 342 348 328 317 317 314 299 291 302 310 310 305 296 297 292 291 283 283 290 300 297 292 304 308
25 254 342 324 47 278 87 258 308 171 112 145 151 156 155 152 133 163 291 227 343 334 250 238 325 325 325 317 314 317 304 294 282 287 299 296 299 299 306 301 295 294 292 278 277 264 274 280 286
230 327 310 260 266 35 359 73 300 25 140 194 161 152 132 138 124 45 41 109 54 0 357 333 2 333 319 314 310 313 310 305 297 298 299 298 298 301 301 302 276 275 282 296 282 253 252 258 266
359 8 353 32 89 40 260 137 334 319 265 47 104 114 128 101 77 81 47 9 337 332 331 328 339 349 330 320 311 306 305 301 293 287 288 294 298 291 289 293 288 284 286 279 280 270 263 262 264
38 44 347 4 13 225 346 59 219 262 129 128 130 122 105 95 53 8 347 348 347 345 1 344 319 314 309 304 305 304 301 294 284 280 285 288 287 281 283 283 281 283 283 283 286 285 280 275 272
332 129 143 264 304 280 346 122 235 219 120 114 119 128 100 51 19 8 0 342 348 334 307 311 318 317 310 306 306 307 307 306 301 299 295 290 281 277 275 272 270 270 267 282 279 272 279 281 275
323 42 184 115 350 38 252 23 353 213 152 98 100 111 71 40 18 7 7 28 10 346 336 324 315 311 310 317 319 314 312 305 298 293 292 293 289 283 273 269 267 268 271 274 275 273 272 273 273
135 181 40 14 310 306 297 203 223 230 237 88 96 85 59 37 60 62 23 1 347 336 325 320 318 321 325 327 325 321 313 307 304 302 298 284 276 277 278 277 279 279 280 279 276 272 270 269 263
21 23 61 114 139 170 278 282 218 221 118 118 107 82 51 84 62 25 360 353 338 331 330 331 331 333 331 325 321 317 309 306 301 292 285 278 279 278 275 271 273 277 278 272 277 281 276 268 266
173 175 130 116 260 180 154 266 48 123 119 117 98 47 45 50 15 6 11 349 336 332 331 331 333 331 326 323 318 312 312 315 315 313 300 292 286 277 270 272 274 276 275 277 276 276 272 273 269